Avoca, PA

7:26 PM EDT on September 22, 2019 (GMT -0400)
Wilkes-Barre-Scranton International

Weather History for KAVP - August, 2019

Change the Weather History Date:

Friday, August 16, 2019

  Actual Average Record
Temperature  
Mean Temperature 75 °F 70 °F  
Max Temperature 84 °F 80 °F 93 °F (1938)
Min Temperature 66 °F 60 °F 49 °F (1979)
Degree Days  
Heating Degree Days 0 0  
Month to date heating degree days 0 0  
Since 1 June heating degree days 32 62  
Since 1 July heating degree days 0 8  
Cooling Degree Days 10 5  
Month to date cooling degree days 136 95  
Year to date cooling degree days 650 455  
Since 1 June cooling degree days 600 418  
Growing Degree Days 25 (Base 50)    
Moisture  
Dew Point 66 °F    
Average Humidity 73    
Maximum Humidity 87    
Minimum Humidity 58    
Precipitation  
Precipitation 0.01 in 0.11 in 3.18 in (1966)
Month to date precipitation 3.56 1.83  
Year to date precipitation 35.64 23.45  
Sea Level Pressure  
Sea Level Pressure 30.00 in    
Wind  
Wind Speed 4 mph (SSE)    
Max Wind Speed 13 mph    
Max Gust Speed 17 mph    
Visibility 9 miles    
Events Thunderstorm    
T = Trace of Precipitation, MM = Missing Value Source: NWS Daily Summary

Daily Weather History Graph

Daily Weather History Graph

Search for Another Location

Airport or City:

Astronomy

Aug. 16, 2019 Rise Set
Actual Time 6:12 AM EDT 8:00 PM EDT
Civil Twilight 5:43 AM EDT 8:30 PM EDT
Nautical Twilight 5:07 AM EDT 9:06 PM EDT
Astronomical Twilight 4:28 AM EDT 9:44 PM EDT
Moon 8:58 PM EDT (8/16) 7:02 AM EDT (8/16)
Length of Visible Light 14h 47m
Length of Day
13h 48m
Full, 99% of the Moon is Illuminated
Aug 16
Full
Aug 23
Last Quarter
Aug 30
New
Sep 5
First Quarter
Sep 14
Full

Hourly Weather History & Observations

Time (EDT) Temp. Heat Index Dew Point Humidity Pressure Visibility Wind Dir Wind Speed Gust Speed Precip Events Conditions
12:54 AM 68.0 °F - 64.0 °F 87% 30.00 in 10.0 mi East 4.6 mph - N/A Thunderstorm Thunderstorm
1:54 AM 68.0 °F - 62.1 °F 81% 29.98 in 10.0 mi Calm Calm - N/A Thunderstorm Thunderstorm
2:32 AM 66.0 °F - 62.1 °F 87% 30.01 in 10.0 mi East 5.8 mph - N/A   Clear
2:54 AM 66.9 °F - 62.1 °F 84% 29.99 in 10.0 mi East 4.6 mph - N/A   Partly Cloudy
3:54 AM 66.9 °F - 63.0 °F 87% 29.99 in 10.0 mi NNE 8.1 mph - N/A   Overcast
4:35 AM 66.0 °F - 63.0 °F 90% 30.03 in 9.0 mi Calm Calm - N/A   Mostly Cloudy
4:54 AM 66.9 °F - 63.0 °F 87% 30.01 in 9.0 mi Calm Calm - N/A   Overcast
5:09 AM 66.9 °F - 64.0 °F 90% 30.04 in 9.0 mi East 3.5 mph - N/A   Overcast
5:28 AM 66.9 °F - 63.0 °F 87% 30.03 in 9.0 mi East 3.5 mph - N/A   Overcast
5:54 AM 68.0 °F - 64.0 °F 87% 29.99 in 9.0 mi ESE 4.6 mph - N/A   Overcast
6:54 AM 68.0 °F - 64.0 °F 87% 30.00 in 8.0 mi Calm Calm - N/A   Overcast
7:54 AM 72.0 °F - 66.0 °F 81% 30.01 in 8.0 mi Calm Calm - N/A   Mostly Cloudy
8:10 AM 71.1 °F - 66.0 °F 84% 30.03 in 8.0 mi Calm Calm - N/A   Scattered Clouds
8:38 AM 72.0 °F - 66.0 °F 81% 30.02 in 9.0 mi SW 3.5 mph - N/A   Mostly Cloudy
8:54 AM 72.0 °F - 66.0 °F 81% 30.00 in 9.0 mi Calm Calm - N/A   Mostly Cloudy
9:05 AM 73.0 °F - 66.0 °F 79% 30.03 in 9.0 mi Variable 3.5 mph - N/A   Mostly Cloudy
9:54 AM 73.9 °F - 66.9 °F 79% 30.01 in 8.0 mi Variable 5.8 mph - N/A   Overcast
10:10 AM 73.9 °F - 66.9 °F 79% 30.03 in 8.0 mi Variable 5.8 mph - N/A   Overcast
10:54 AM 75.0 °F - 66.9 °F 76% 30.02 in 9.0 mi SW 5.8 mph - N/A   Overcast
11:12 AM 75.0 °F - 66.9 °F 76% 30.04 in 9.0 mi Variable 3.5 mph - N/A   Overcast
11:24 AM 78.1 °F - 68.0 °F 71% 30.03 in 9.0 mi Variable 5.8 mph - N/A   Mostly Cloudy
11:40 AM 77.0 °F - 66.9 °F 71% 30.04 in 9.0 mi Variable 5.8 mph - N/A   Overcast
11:54 AM 75.9 °F - 66.9 °F 74% 30.02 in 9.0 mi Variable 4.6 mph - N/A   Overcast
12:44 PM 78.1 °F - 68.0 °F 71% 30.03 in 9.0 mi SW 3.5 mph - N/A   Overcast
12:54 PM 78.1 °F - 68.0 °F 71% 30.01 in 9.0 mi WSW 5.8 mph - N/A   Overcast
1:06 PM 78.1 °F - 68.0 °F 71% 30.03 in 9.0 mi WSW 3.5 mph - N/A   Overcast
1:42 PM 79.0 °F - 66.9 °F 66% 30.03 in 10.0 mi Calm Calm - N/A   Mostly Cloudy
1:54 PM 81.0 °F 84.1 °F 69.1 °F 67% 30.00 in 10.0 mi Variable 3.5 mph - N/A   Mostly Cloudy
2:54 PM 81.0 °F 83.8 °F 68.0 °F 65% 30.00 in 10.0 mi Variable 5.8 mph - 0.01 in   Overcast
3:54 PM 82.9 °F 85.8 °F 68.0 °F 60% 29.97 in 10.0 mi SW 10.4 mph 16.1 mph N/A   Partly Cloudy
4:54 PM 82.9 °F 85.8 °F 68.0 °F 60% 29.96 in 10.0 mi Variable 5.8 mph - N/A   Clear
5:54 PM 82.9 °F 85.4 °F 66.9 °F 58% 29.95 in 10.0 mi South 8.1 mph - N/A   Partly Cloudy
6:54 PM 81.0 °F 84.1 °F 69.1 °F 67% 29.94 in 10.0 mi Variable 4.6 mph - N/A   Mostly Cloudy
7:54 PM 79.0 °F - 69.1 °F 72% 29.96 in 10.0 mi SW 4.6 mph - N/A   Mostly Cloudy
8:54 PM 75.0 °F - 69.1 °F 82% 29.97 in 10.0 mi Calm Calm - N/A   Mostly Cloudy
9:54 PM 75.0 °F - 69.1 °F 82% 29.99 in 9.0 mi Calm Calm - N/A   Scattered Clouds
10:54 PM 73.9 °F - 69.1 °F 85% 30.00 in 9.0 mi SE 3.5 mph - N/A   Mostly Cloudy
11:54 PM 73.9 °F - 69.1 °F 85% 30.00 in 9.0 mi Calm Calm - N/A   Overcast